Home   Weather   Hückelhoven   Past weeks

Flag for Germany Past Weather in Hückelhoven, North Rhine-Westphalia, Germany — Yesterday and Last 2 Weeks

Now
39 °F

Clear.


Feels Like: 39 °F
Forecast: 38 / 54 °F
Wind: 2 mph from Southwest

Location: Geilenkirchen Airport

Current Time: Apr 28, 2017 at 2:43:25 am

Latest Report: Apr 28, 2017 at 1:50 am


Visibility: 10 mi

Pressure: 30.01 "Hg

Humidity: 81%

Dew Point: 34 °F

Location of HückelhovenLocation

Past Weather in Hückelhoven — Graph

°F

Hückelhoven Temperature Yesterday

Maximum temperature yesterday: 52 °F (at 2:50 pm)
Minimum temperature yesterday: 36 °F (at 6:50 am)
Average temperature yesterday: 44 °F

High & Low Weather Summary for the Past Weeks

 TemperatureHumidityPressure
High59 °F (Apr 24, 2:50 pm)93% (Apr 13, 6:50 am)30.66 "Hg (Apr 13, 6:50 am)
Low27 °F (Apr 20, 3:50 am)33% (Apr 20, 4:50 pm)29.74 "Hg (Apr 25, 12:50 am)
Average44 °F66%30.18 "Hg
* Reported Apr 13 12:50 am — Apr 28 12:50 am, Hückelhoven, Weather by CustomWeather, © 2017

Note: Actual official high and low records may vary slightly from our data, if they occured in-between our weather recording intervals... More about our weather records

Advertising

Hückelhoven Weather History for the Previous 24 Hours

Scroll right to see more
 ConditionsComfort  
Time TempWeatherWind HumidityBarometerVisibility
12:50 am
Fri, Apr 28
37 °FClear.2 mph87%30.01 "Hg10 mi
11:50 pm
Thu, Apr 27
41 °FClear.2 mph81%30.01 "Hg10 mi
10:50 pm45 °FClear.3 mph66%30.01 "Hg10 mi
9:50 pm45 °FSprinkles. Partly cloudy.2 mph71%30.01 "HgN/A
8:50 pm45 °FClear.6 mph71%30.01 "Hg10 mi
7:50 pm46 °FBroken clouds.13 mph62%30.01 "HgN/A
6:50 pm46 °FPartly sunny.12 mph66%30.01 "HgN/A
5:50 pm50 °FPartly sunny.9 mph47%30.01 "HgN/A
4:50 pm50 °FBroken clouds.18 mph54%30.04 "HgN/A
3:50 pm52 °FBroken clouds.18 mph54%30.01 "HgN/A
2:50 pm52 °FBroken clouds.5 mph47%30.01 "HgN/A
1:50 pm50 °FBroken clouds.8 mph47%30.04 "HgN/A
12:50 pm48 °FBroken clouds.7 mph50%30.04 "HgN/A
11:50 am50 °FScattered clouds.7 mph50%30.04 "HgN/A
10:50 am46 °FPartly sunny.7 mph57%30.04 "HgN/A
9:50 am45 °FPassing clouds.5 mph71%30.04 "HgN/A
8:50 am41 °FSunny.5 mph81%30.04 "Hg10 mi
7:50 am39 °FScattered clouds.2 mph87%30.04 "HgN/A
6:50 am36 °FSunny.2 mph93%30.01 "Hg10 mi
5:50 am37 °FClear.6 mph87%30.01 "Hg10 mi
4:50 am37 °FClear.6 mph87%30.01 "Hg10 mi
3:50 am37 °FClear.5 mph87%30.01 "Hg10 mi
2:50 am37 °FPassing clouds.6 mph93%29.98 "HgN/A
Weather by CustomWeather, © 2017

See weather overviewHow to use our weather pages